TimeMDT,TemperatureF,Dew PointF,Humidity,Sea Level PressureIn,VisibilityMPH,Wind Direction,Wind SpeedMPH,Gust SpeedMPH,PrecipitationIn,Events,Conditions,WindDirDegrees,DateUTC
12:53 AM,44.1,27.0,51,30.18,10.0,SSE,4.6,-,N/A,,Clear,160,2013-03-13 06:53:00
1:53 AM,45.0,28.0,52,30.16,10.0,ESE,5.8,-,N/A,,Clear,110,2013-03-13 07:53:00
2:53 AM,42.1,28.0,58,30.16,10.0,Variable,3.5,-,N/A,,Clear,0,2013-03-13 08:53:00
3:53 AM,43.0,28.0,56,30.14,10.0,Calm,Calm,-,N/A,,Clear,0,2013-03-13 09:53:00
4:53 AM,42.1,28.9,60,30.14,10.0,WNW,3.5,-,N/A,,Overcast,300,2013-03-13 10:53:00
5:53 AM,39.9,28.0,63,30.15,10.0,WSW,4.6,-,N/A,,Mostly Cloudy,240,2013-03-13 11:53:00
6:53 AM,46.9,26.1,44,30.12,10.0,SSW,11.5,-,N/A,,Scattered Clouds,200,2013-03-13 12:53:00
7:53 AM,37.0,27.0,67,30.15,10.0,NW,4.6,-,N/A,,Mostly Cloudy,320,2013-03-13 13:53:00
8:53 AM,39.9,28.0,63,30.16,10.0,WSW,3.5,-,N/A,,Overcast,240,2013-03-13 14:53:00
9:53 AM,43.0,28.9,58,30.17,10.0,Variable,3.5,-,N/A,,Mostly Cloudy,0,2013-03-13 15:53:00
10:53 AM,51.1,27.0,39,30.15,10.0,ESE,5.8,-,N/A,,Mostly Cloudy,120,2013-03-13 16:53:00
11:53 AM,55.0,28.0,35,30.16,10.0,NW,8.1,-,N/A,,Mostly Cloudy,320,2013-03-13 17:53:00
12:53 PM,55.9,26.1,32,30.15,10.0,Calm,Calm,-,N/A,,Overcast,0,2013-03-13 18:53:00
1:53 PM,59.0,21.9,24,30.13,10.0,West,10.4,23.0,N/A,,Mostly Cloudy,280,2013-03-13 19:53:00
2:53 PM,60.1,23.0,24,30.13,10.0,West,10.4,-,N/A,,Overcast,280,2013-03-13 20:53:00
3:53 PM,62.1,24.1,23,30.12,10.0,West,13.8,21.9,N/A,,Overcast,260,2013-03-13 21:53:00
4:53 PM,61.0,26.1,26,30.13,10.0,West,12.7,21.9,N/A,,Mostly Cloudy,260,2013-03-13 22:53:00
5:53 PM,57.9,26.1,30,30.15,10.0,SW,10.4,19.6,N/A,,Scattered Clouds,230,2013-03-13 23:53:00
6:53 PM,57.0,25.0,29,30.14,10.0,West,13.8,-,N/A,,Clear,270,2013-03-14 00:53:00
7:53 PM,55.0,25.0,31,30.19,10.0,West,11.5,-,N/A,,Clear,270,2013-03-14 01:53:00
8:53 PM,51.1,26.1,38,30.19,10.0,South,3.5,-,N/A,,Clear,170,2013-03-14 02:53:00
9:53 PM,50.0,26.1,39,30.19,10.0,WNW,3.5,-,N/A,,Clear,300,2013-03-14 03:53:00
10:53 PM,46.0,27.0,47,30.19,10.0,Calm,Calm,-,N/A,,Clear,0,2013-03-14 04:53:00
11:53 PM,45.0,28.0,52,30.19,10.0,SSW,3.5,-,N/A,,Clear,200,2013-03-14 05:53:00